Location: Balsareny
(41.8670°N, 1.8830°E)
Time: 00:58:44
(UTC+01:00)

ISS - Pass Details

Date: 03 December 2021
Orbit: 413 x 422 km, 51.6° (Epoch: 25 January)

Event Time Altitude Azimuth Distance (km) Brightness Sun altitude
Rises 18:34:15 0° 308° (NW) 2,385 0.6 -13.1°
Reaches altitude 10° 18:36:36 10° 322° (NW) 1,516 -0.7 -13.6°
Maximum altitude 18:39:30 26° 20° (NNE) 883 -2.5 -14.1°
Enters shadow 18:40:10 24° 41° (NE) 925 -2.5 -14.2°
